Lid_Strength_Index
1 0 -1 -1 -1 -1 -1 -1 -1 -1 -1 -1 -1 -1 -1 -1 -1 -1 -1 -1 -1 -1 -1 -1 -1 -1 -1 -1 -1 -1 -1 -1 -1 -1 -1 -1 -1 -1 -1 -1 -1 -1 -1
0 -0 -1 -1 -1 -1 -1 -1 -1 -1 -1 -1 -1 -1 -1 -1 -1 -1 -1 -1 -1 -1 -1 -1 -1 -1 -1 -1 -1 -1 -1 -1 -1 -1 -1 -1 -1 -1 -1 -1 -1 -1 -1
0 -0 -0 -1 -1 -1 -1 -1 -1 -1 -1 -1 -1 -1 -1 -1 -1 -1 -1 -1 -1 -1 -1 -1 -1 -1 -1 -1 -1 -1 -1 -1 -1 -1 -1 -0 0 -1 -1 -1 -1 -1 -1
0 0 -0 -1 -1 -1 -1 -1 -1 -1 -1 -1 -1 -1 -1 -1 -1 -1 -1 -1 -1 -1 -1 -1 -1 -1 -1 -1 -1 -1 -1 -1 -1 -1 -0 1 -0 -1 -1 -1 -1 -1 -1
0 0 -0 -1 -1 -1 -1 -1 -1 -1 -1 -1 -1 -1 -1 -1 -1 -1 -1 -1 -1 -1 -1 -1 -1 -1 -1 -1 -1 -1 -1 -1 -1 -1 1 0 0 -1 -1 -1 -1 -1 -1
1 1 -1 -1 -1 -1 -1 -1 -1 -1 -1 -1 -1 -1 -1 -1 -1 -1 -1 -1 -1 -1 -1 -1 -1 -1 -1 -1 -1 -1 -1 -1 -1 0 1 0 -0 -1 -2 -1 -1 -1 -1
1 1 -0 -1 -1 -1 -1 -1 -1 -1 -1 -1 -1 -1 -1 -1 -1 -1 -1 -1 -1 -1 -1 -1 -1 -2 -2 -2 -2 -2 -1 -1 0 0 0 0 0 -2 -2 -1 -1 -1 -1
0 0 -0 -1 -1 -1 -1 -1 -1 -1 -1 -1 -1 -1 -1 -1 -1 -1 -1 -1 -1 -1 -1 -1 -2 -2 -2 -2 -2 -2 -2 -1 -0 -0 -0 -0 1 -2 -1 -1 -2 -1 -1
0 0 0 0 -1 -1 -1 -1 -1 -1 -1 -1 -1 -1 -1 -1 -1 -1 -1 -1 -1 -2 -2 -2 -2 -2 -2 -2 -2 -2 -2 -1 0 0 -0 -0 -1 -1 -1 -1 -1 -1 -1
1 0 1 0 0 0 0 -1 -1 -1 -1 -1 -1 -1 -1 -1 -1 -1 -1 -1 -1 -2 -2 -2 -2 -2 -2 -2 -2 -2 -1 -1 0 0 -0 -0 -1 -1 -1 -1 -1 -1 -1
2 2 1 1 1 1 0 -0 -1 -1 -1 -1 -1 -1 -1 0 0 -0 -1 -1 -1 -1 -2 -2 -2 -2 -2 -2 -2 -2 -1 -0 0 0 1 -1 -1 -1 -1 -2 -2 -1 -1
2 2 1 1 1 0 -0 0 1 0 0 0 0 0 1 1 1 -0 -1 -1 -1 -1 -1 -1 -2 -2 -1 -0 0 -0 0 0 0 -0 0 -1 -1 -1 -2 -2 -2 -2 -2
3 1 1 0 0 0 0 0 1 1 0 1 0 1 1 0 1 0 1 0 0 -1 -0 -0 -0 0 1 1 2 1 1 0 0 -0 -0 -1 -1 -2 -2 -2 -2 -2 -2
3 1 1 0 0 0 0 0 0 0 0 0 0 1 1 0 0 0 0 0 1 0 0 0 1 1 3 2 2 1 0 1 0 0 0 -1 -1 -2 -2 -2 -2 -2 -2
3 2 1 0 0 0 0 0 0 0 0 0 0 0 0 0 0 0 1 1 1 1 0 1 2 3 3 1 0 1 1 1 1 0 0 -1 -2 -2 -2 -2 -2 -2 -1
3 2 1 2 1 0 0 0 0 0 0 0 0 -0 0 0 0 2 2 2 2 1 1 1 2 2 2 1 0 0 0 1 1 2 0 0 -1 -2 -2 -2 -2 -1 -1
2 2 2 2 2 1 1 0 0 0 0 0 0 0 -0 -0 0 0 1 2 2 2 1 1 2 1 1 1 2 1 1 1 0 -0 -0 -0 -0 -2 -2 -2 -2 -1 -1
2 3 2 1 2 2 2 0 0 0 0 0 0 -0 -0 -0 -0 0 1 2 1 1 0 1 2 2 2 2 3 3 3 3 0 0 -0 0 0 1 -1 -2 -2 -2 -2
2 2 3 2 3 2 2 1 1 1 1 0 0 0 0 -0 -0 0 0 1 1 0 1 1 2 2 2 2 2 4 6 4 3 2 2 2 2 2 1 -2 -2 -2 -1
4 2 2 3 3 3 2 2 2 2 1 1 1 1 0 0 -0 1 1 1 1 1 1 2 2 2 3 3 4 6 5 3 2 4 5 4 2 0 0 1 0 -0 -1
6 5 3 2 2 2 2 2 2 2 2 2 1 1 0 0 0 1 1 1 1 1 1 2 2 3 3 5 7 6 6 5 4 6 6 6 4 1 1 1 1 1 -0
6 6 6 5 3 2 2 2 2 2 2 2 2 2 0 0 1 1 1 1 0 1 2 2 3 4 4 6 8 8 7 6 6 6 7 6 6 5 4 1 1 0 1
9 8 8 7 5 5 3 1 2 2 3 3 3 3 2 0 0 1 1 1 1 1 2 2 3 4 5 6 7 7 8 8 8 6 7 7 7 8 7 5 3 1 3
11 10 10 10 10 6 5 4 4 4 5 5 4 3 2 1 0 0 1 0 1 0 1 2 3 5 7 7 7 6 6 6 7 9 7 8 8 8 7 4 2 2 3
11 11 11 11 10 10 9 6 5 4 3 3 3 3 2 2 1 0 0 1 0 0 1 2 4 6 8 7 8 7 8 8 8 8 10 10 9 9 6 4 3 4 3
14 14 13 13 12 11 11 10 8 7 5 4 3 3 1 1 1 0 0 0 1 1 1 2 3 5 6 7 8 8 8 9 10 10 11 11 11 10 8 6 6 6 6